Date String (YYYY-MM-DD hh:mm:ss) UTC,Instrument flags,Ambient pressure (hPa),Sample flow (lpm),Bypass flow (lpm),Sample temperature (°C),Ambient temperature (°C),ASC tube jacket temperature (°C),LED temperature (°C),Box temperature (°C),Sample RH (%),Span deviation,Mass concentration (μg/m³),Mass concentration (μg/m³),Mass concentration (μg/m³)
DateTimeUTC,F1_M11,P_M11,Q1_M11,Q2_M11,T1_M11,T2_M11,T3_M11,T4_M11,T5_M11,U1_M11,ZSPAN_M11,X0_M11,X2_M11,X1_M11
2022-10-11 21:00:00,,0819.6,4.99,0.00,29.1,28.2,00.0,38.0,30.9,09.4,0000.0,0008.81,0004.81,0004.33
2022-10-11 21:01:00,,0819.7,5.01,0.00,29.1,28.2,00.0,38.0,30.9,09.7,0000.0,0008.83,0004.84,0004.33
2022-10-11 21:02:00,,0819.6,4.99,0.00,29.1,28.2,00.0,38.0,30.9,10.1,0000.0,0009.02,0004.90,0004.35
2022-10-11 21:03:00,,0819.6,5.01,0.00,29.1,28.2,00.0,38.0,30.8,10.0,0000.0,0009.17,0004.93,0004.34
2022-10-11 21:07:00,,0819.5,4.96,0.00,29.0,28.0,00.0,37.9,30.8,09.7,0000.0,0009.17,0004.88,0004.35
2022-10-11 21:08:00,,0819.4,4.98,0.00,29.0,28.0,00.0,37.9,30.8,09.6,0000.0,0008.75,0004.88,0004.34
2022-10-11 21:09:00,,0819.4,5.01,0.00,29.0,28.0,00.0,37.9,30.8,09.5,0000.0,0008.56,0004.89,0004.34
2022-10-11 21:10:00,,0819.3,4.99,0.00,29.0,28.1,00.0,37.8,30.8,09.6,0000.0,0009.08,0004.87,0004.34
2022-10-11 21:11:00,,0819.3,5.01,0.00,29.0,28.1,00.0,37.8,30.8,09.9,0000.0,0009.14,0004.85,0004.33
2022-10-11 21:12:00,,0819.3,5.00,0.00,29.0,28.1,00.0,37.8,30.8,09.9,0000.0,0009.08,0004.82,0004.33
2022-10-11 21:13:00,,0819.3,5.00,0.00,29.0,28.1,00.0,37.8,30.9,09.7,0000.0,0008.94,0004.79,0004.32
2022-10-11 21:14:00,,0819.3,5.01,0.00,29.0,28.1,00.0,37.8,30.9,09.7,0000.0,0008.83,0004.75,0004.32
2022-10-11 21:15:00,,0819.4,4.99,0.00,29.0,28.1,00.0,37.8,30.9,10.1,0000.0,0009.17,0004.75,0004.31
2022-10-11 21:16:00,,0819.4,5.01,0.00,29.0,28.0,00.0,37.8,30.8,10.7,0000.0,0009.07,0004.75,0004.30
2022-10-11 21:17:00,,0819.4,4.99,0.00,29.0,28.0,00.0,37.8,30.7,11.3,0000.0,0008.93,0004.74,0004.30
2022-10-11 21:18:00,,0819.3,5.01,0.00,28.9,27.9,00.0,37.8,30.6,11.7,0000.0,0009.50,0004.76,0004.31
2022-10-11 21:19:00,,0819.3,5.00,0.00,28.9,27.8,00.0,37.8,30.6,11.5,0000.0,0009.56,0004.79,0004.33
2022-10-11 21:20:00,,0819.4,5.00,0.00,28.8,27.8,00.0,37.8,30.5,11.3,0000.0,0009.65,0004.82,0004.34
2022-10-11 21:21:00,,0819.4,5.02,0.00,28.8,27.6,00.0,37.8,30.4,10.8,0000.0,0009.27,0004.86,0004.36
2022-10-11 21:22:00,,0819.5,5.01,0.00,28.7,27.6,00.0,37.7,30.3,10.0,0000.0,0009.22,0004.87,0004.38
2022-10-11 21:23:00,,0819.5,4.99,0.00,28.7,27.5,00.0,37.7,30.2,09.8,0000.0,0009.36,0004.85,0004.37
2022-10-11 21:24:00,,0819.6,5.01,0.00,28.6,27.4,00.0,37.6,30.1,09.7,0000.0,0009.85,0004.83,0004.36
2022-10-11 21:25:00,,0819.5,4.99,0.00,28.6,27.3,00.0,37.6,30.1,09.6,0000.0,0010.17,0004.85,0004.36
2022-10-11 21:26:00,,0819.4,5.00,0.00,28.5,27.3,00.0,37.6,30.1,09.6,0000.0,0009.80,0004.86,0004.37
2022-10-11 21:27:00,,0819.6,4.99,0.00,28.5,27.3,00.0,37.5,30.1,09.8,0000.0,0009.69,0004.84,0004.36
2022-10-11 21:28:00,,0819.6,5.02,0.00,28.4,27.3,00.0,37.5,30.0,10.4,0000.0,0009.46,0004.82,0004.35
2022-10-11 21:29:00,,0819.6,4.99,0.00,28.4,27.3,00.0,37.4,30.0,10.9,0000.0,0008.98,0004.84,0004.37
2022-10-11 21:30:00,,0819.6,5.00,0.00,28.4,27.2,00.0,37.4,30.0,10.8,0000.0,0009.01,0004.86,0004.38
2022-10-11 21:31:00,,0819.7,5.01,0.00,28.3,27.1,00.0,37.4,29.9,11.4,0000.0,0009.04,0004.89,0004.40
2022-10-11 21:32:00,,0819.6,4.99,0.00,28.3,27.0,00.0,37.3,29.8,11.4,0000.0,0009.46,0004.90,0004.42
2022-10-11 21:33:00,,0819.7,5.00,0.00,28.2,27.0,00.0,37.3,29.8,11.4,0000.0,0010.54,0004.93,0004.46
2022-10-11 21:34:00,,0819.7,5.01,0.00,28.1,27.0,00.0,37.3,29.7,11.6,0000.0,0010.96,0005.01,0004.52
2022-10-11 21:35:00,,0819.7,4.99,0.00,28.1,26.9,00.0,37.2,29.6,10.7,0000.0,0010.87,0005.11,0004.57
2022-10-11 21:36:00,,0819.7,5.01,0.00,28.0,26.9,00.0,37.2,29.6,10.1,0000.0,0011.98,0005.20,0004.59
2022-10-11 21:37:00,,0819.6,4.99,0.00,28.0,27.0,00.0,37.1,29.7,10.0,0000.0,0013.75,0005.30,0004.60
2022-10-11 21:38:00,,0819.6,4.99,0.00,28.0,27.0,00.0,37.1,29.7,09.9,0000.0,0014.21,0005.32,0004.60
2022-10-11 21:39:00,,0819.7,5.01,0.00,28.0,27.0,00.0,37.1,29.7,10.1,0000.0,0014.78,0005.33,0004.60
2022-10-11 21:40:00,,0819.7,5.00,0.00,28.0,27.0,00.0,37.0,29.6,10.7,0000.0,0015.16,0005.37,0004.61
2022-10-11 21:41:00,,0819.8,5.01,0.00,27.9,26.9,00.0,37.0,29.5,11.5,0000.0,0020.32,0005.72,0004.68
2022-10-11 21:42:00,,0819.7,4.99,0.00,27.9,26.8,00.0,37.0,29.5,11.6,0000.0,0020.46,0005.73,0004.67
2022-10-11 21:43:00,,0819.7,4.99,0.00,27.8,26.8,00.0,36.9,29.4,11.3,0000.0,0020.71,0005.71,0004.66
2022-10-11 21:44:00,,0819.8,5.01,0.00,27.8,26.8,00.0,36.9,29.4,10.9,0000.0,0019.91,0005.71,0004.64
2022-10-11 21:45:00,,0819.8,4.99,0.00,27.8,26.8,00.0,36.9,29.4,11.5,0000.0,0019.81,0005.68,0004.61
2022-10-11 21:46:00,,0819.7,5.00,0.00,27.8,26.8,00.0,36.8,29.4,11.4,0000.0,0019.68,0005.65,0004.59
2022-10-11 21:47:00,,0819.8,5.01,0.00,27.8,26.8,00.0,36.8,29.4,10.9,0000.0,0018.84,0005.58,0004.59
2022-10-11 21:48:00,,0819.8,4.99,0.00,27.7,26.8,00.0,36.8,29.4,11.2,0000.0,0017.66,0005.55,0004.61
2022-10-11 21:49:00,,0819.7,4.99,0.00,27.7,26.8,00.0,36.8,29.4,10.9,0000.0,0017.40,0005.60,0004.64
2022-10-11 21:50:00,,0819.6,4.99,0.00,27.7,26.7,00.0,36.8,29.4,10.9,0000.0,0016.98,0005.61,0004.65
2022-10-11 21:51:00,,0819.6,5.01,0.00,27.7,26.7,00.0,36.8,29.5,10.8,0000.0,0016.85,0005.57,0004.62
2022-10-11 21:52:00,,0819.6,4.99,0.00,27.8,26.7,00.0,36.7,29.6,10.7,0000.0,0012.87,0005.24,0004.53
2022-10-11 21:53:00,,0819.6,5.01,0.00,27.8,26.8,00.0,36.7,29.6,10.7,0000.0,0011.16,0005.07,0004.49
2022-10-11 21:54:00,,0819.5,4.99,0.00,27.8,26.8,00.0,36.7,29.7,10.7,0000.0,0011.77,0005.10,0004.46
2022-10-11 21:55:00,,0819.5,5.00,0.00,27.9,26.9,00.0,36.7,29.7,10.9,0000.0,0011.20,0005.04,0004.43
2022-10-11 21:56:00,,0819.5,5.00,0.00,27.9,26.8,00.0,36.7,29.7,11.1,0000.0,0011.00,0005.01,0004.40
2022-10-11 21:57:00,,0819.5,4.99,0.00,27.9,26.8,00.0,36.7,29.7,11.0,0000.0,0011.12,0004.99,0004.37
2022-10-11 21:58:00,,0819.5,4.99,0.00,27.9,26.9,00.0,36.7,29.8,10.9,0000.0,0011.05,0004.93,0004.33
2022-10-11 21:59:00,,0819.5,5.01,0.00,28.0,26.9,00.0,36.8,29.8,10.8,0000.0,0010.17,0004.86,0004.28
